FW7322 Weather Reports


Display with metric or nautical units.
time (UTC)temp
F
wind
direction
speed
MPH
gust
MPH
rain 1hr
in
rain 24hr
in
rain mn
in
humidity
%
barometer
mb
20260904052520 74 43 0.0 1.0 0.00 0.70 0.00 93 1034.2
20260904052023 74 43 0.0 0.0 0.00 0.70 0.00 93 1034.2
20260904051520 74 43 0.0 0.0 0.00 0.70 0.00 93 1034.2
20260904051018 74 43 0.0 1.0 0.00 0.70 0.00 92 1034.2
20260904050517 74 43 0.0 1.0 0.00 0.70 0.00 93 1034.2
20260904050017 74 43 0.0 0.0 0.00 0.70 0.00 92 1034.2
20260904045517 74 43 0.0 1.0 0.00 0.77 0.00 92 1034.4
20260904045019 74 43 0.0 1.0 0.00 0.77 0.00 93 1034.3
20260904044519 74 43 0.0 0.0 0.00 0.77 0.00 92 1034.4
20260904044018 74 43 0.0 0.0 0.00 0.77 0.00 92 1034.4
20260904043520 74 43 0.0 1.0 0.03 0.77 0.00 92 1034.3
20260904043017 74 43 0.0 1.0 0.03 0.77 0.00 92 1034.3
20260904042515 74 43 0.0 0.0 0.03 0.77 0.00 92 1034.3
20260904042014 74 43 0.0 1.0 0.03 0.77 0.00 92 1034.4
20260904041515 74 43 0.0 1.0 0.03 0.77 0.00 92 1034.4
20260904041016 75 43 0.0 0.0 0.03 0.77 0.00 92 1034.5
20260904040512 75 43 0.0 1.0 0.03 0.77 0.00 91 1034.4
20260904040011 75 43 0.0 1.0 0.03 0.77 0.00 91 1034.5
20260904035512 75 43 0.0 1.0 0.03 0.88 0.77 91 1034.6
20260904035012 76 43 0.0 3.0 0.03 0.88 0.77 90 1034.8
20260904034509 76 43 0.0 3.0 0.03 0.88 0.77 90 1034.9
20260904034010 77 48 0.0 3.0 0.03 0.88 0.77 90 1034.9
20260904033510 76 57 0.0 3.0 0.00 0.85 0.74 90 1035.0
20260904033010 76 314 0.0 1.0 0.00 0.85 0.74 90 1035.1
20260904032509 76 334 0.0 0.0 0.00 0.85 0.74 89 1035.1
20260904032013 76 333 0.0 0.0 0.00 0.85 0.74 89 1035.1
20260904031509 76 334 0.0 0.0 0.00 0.85 0.74 89 1035.0
20260904031008 76 334 0.0 0.0 0.00 0.85 0.74 89 1035.1
20260904030509 77 334 0.0 1.0 0.00 0.85 0.74 89 1035.0
20260904030008 77 334 0.0 1.0 0.00 0.85 0.74 89 1035.2
20260904025508 77 334 0.0 0.0 0.00 0.89 0.74 89 1035.1
20260904025008 76 334 0.0 0.0 0.00 0.89 0.74 89 1035.1
20260904024508 76 334 0.0 0.0 0.00 0.89 0.74 89 1035.1
20260904024007 77 333 0.0 1.0 0.00 0.89 0.74 88 1035.0
20260904023507 77 333 0.0 1.0 0.00 0.89 0.74 88 1035.0
20260904023008 77 334 0.0 1.0 0.00 0.89 0.74 88 1035.0
20260904022508 76 333 0.0 1.0 0.00 0.89 0.74 88 1035.0
20260904022008 76 333 0.0 1.0 0.00 0.89 0.74 89 1035.0
20260904021510 76 333 0.0 1.0 0.00 0.89 0.74 89 1035.1
20260904021007 76 333 0.0 1.0 0.00 0.89 0.74 88 1035.1
20260904020507 76 333 0.0 1.0 0.00 0.89 0.74 88 1034.9
20260904020006 76 333 0.0 1.0 0.00 0.89 0.74 88 1034.9
20260904015506 76 350 0.0 0.0 0.00 0.89 0.74 88 1035.0
20260904015010 76 351 0.0 0.0 0.00 0.89 0.74 88 1034.8
20260904014506 77 351 0.0 0.0 0.00 0.89 0.74 88 1034.8
20260904014007 77 351 0.0 1.0 0.00 0.89 0.74 88 1035.0
20260904013505 77 351 0.0 1.0 0.00 0.89 0.74 87 1034.9
20260904013005 77 351 0.0 1.0 0.00 0.89 0.74 87 1034.9
20260904012507 77 351 0.0 1.0 0.00 0.89 0.74 87 1035.0
20260904012006 77 351 0.0 1.0 0.00 0.89 0.74 87 1034.9
20260904011504 77 319 0.0 0.0 0.00 0.89 0.74 87 1035.0
20260904011004 77 319 0.0 0.0 0.00 0.89 0.74 87 1035.0
20260904010504 77 319 0.0 0.0 0.00 0.89 0.74 87 1034.9
20260904010006 78 319 0.0 0.0 0.00 0.89 0.74 86 1035.0
20260904005504 78 319 0.0 0.0 0.00 0.89 0.74 86 1035.0
20260904005005 78 319 0.0 1.0 0.00 0.89 0.74 86 1034.9
20260904004504 78 319 0.0 1.0 0.00 0.89 0.74 86 1034.9
20260904004004 78 319 0.0 1.0 0.00 0.89 0.74 86 1035.2
20260904003505 78 319 0.0 1.0 0.00 0.89 0.74 86 1035.4
20260904003004 78 319 0.0 1.0 0.00 0.89 0.74 86 1035.3
20260904002504 78 320 0.0 0.0 0.00 0.89 0.74 86 1035.2
20260904002006 78 319 0.0 0.0 0.00 0.89 0.74 86 1035.0
20260904001503 78 319 0.0 0.0 0.00 0.89 0.74 86 1034.9
20260904001003 78 319 0.0 0.0 0.00 0.89 0.74 86 1034.9
20260904000503 78 319 0.0 0.0 0.00 0.89 0.74 86 1034.9
20260904000007 78 319 0.0 3.0 0.00 0.89 0.74 86 1034.8
20260903235503 78 319 0.0 3.0 0.00 0.89 0.74 86 1034.6
20260903235002 78 181 0.0 0.0 0.00 0.89 0.74 86 1034.6
20260903234504 78 180 0.0 0.0 0.00 0.89 0.74 86 1034.6
20260903234002 78 181 0.0 0.0 0.00 0.89 0.74 87 1034.6
20260903233501 78 181 0.0 0.0 0.00 0.89 0.74 86 1034.6
20260903233002 78 181 0.0 0.0 0.00 0.89 0.74 86 1034.5
20260903232503 78 181 0.0 0.0 0.00 0.89 0.74 87 1034.8
20260903232002 78 181 0.0 0.0 0.00 0.89 0.74 86 1034.8
20260903231501 79 176 0.0 0.0 0.00 0.89 0.74 86 1034.9
20260903231000 79 176 0.0 0.0 0.00 0.89 0.74 85 1034.7
20260903230500 79 176 0.0 0.0 0.00 0.89 0.74 85 1034.8
20260903230100 79 176 0.0 0.0 0.00 0.89 0.74 85 1034.7
20260903225600 79 176 0.0 0.0 0.00 0.89 0.74 85 1034.8
20260903225101 80 176 0.0 0.0 0.00 0.89 0.74 84 1034.7
20260903224600 80 177 0.0 0.0 0.00 0.89 0.74 84 1034.5
20260903224100 80 177 0.0 0.0 0.00 0.89 0.74 83 1034.6
20260903223600 80 177 0.0 0.0 0.00 0.89 0.74 83 1034.6
20260903223114 81 177 0.0 0.0 0.00 0.89 0.74 82 1034.5
20260903222600 81 177 0.0 0.0 0.00 0.89 0.74 80 1034.4
20260903222059 82 177 0.0 0.0 0.00 0.89 0.74 80 1034.4
20260903221559 82 178 0.0 0.0 0.00 0.89 0.74 79 1034.3
20260903221058 83 146 0.0 1.0 0.00 0.89 0.74 80 1034.6
20260903220558 83 195 0.0 1.0 0.00 0.89 0.74 78 1034.6
20260903220123 84 196 0.0 1.0 0.00 0.89 0.74 77 1034.3
20260903215558 84 196 0.0 1.0 0.00 0.89 0.74 76 1034.3
20260903215057 84 198 0.0 0.0 0.00 0.89 0.74 76 1034.4
20260903214558 84 198 0.0 2.0 0.00 0.89 0.74 76 1034.6
20260903214057 85 197 0.0 2.0 0.00 0.89 0.74 75 1034.4
20260903213557 85 58 0.0 1.0 0.00 0.89 0.74 77 1034.4
20260903213057 85 59 0.0 1.0 0.00 0.89 0.74 77 1034.3
20260903212556 84 53 0.0 1.0 0.00 0.89 0.74 76 1034.4
20260903212056 84 52 0.0 1.0 0.00 0.89 0.74 75 1034.3
20260903211557 84 52 0.0 1.0 0.00 0.89 0.74 77 1034.5
20260903211057 84 48 0.0 1.0 0.00 0.89 0.74 77 1034.5
20260903210555 85 48 0.0 1.0 0.00 0.89 0.74 77 1034.5
20260903210059 85 45 0.0 1.0 0.00 0.89 0.74 75 1034.4
20260903205556 85 188 0.0 1.0 0.00 0.89 0.74 76 1034.4
20260903205054 85 186 0.0 1.0 0.00 0.89 0.74 77 1034.4
20260903204554 85 207 0.0 1.0 0.00 0.89 0.74 74 1034.5
20260903204055 85 91 0.0 1.0 0.00 0.89 0.74 77 1034.5
20260903203552 85 91 0.0 2.0 0.00 0.89 0.74 76 1034.6
20260903203153 85 41 0.0 2.0 0.00 0.89 0.74 74 1034.6
20260903202552 85 72 0.0 2.0 0.00 0.89 0.74 73 1034.6
20260903202054 85 204 0.0 2.0 0.00 0.89 0.74 71 1034.8
20260903201550 85 116 0.0 2.0 0.00 0.89 0.74 74 1034.8
20260903201050 85 34 0.0 3.0 0.00 0.89 0.74 74 1034.8
20260903200550 86 321 0.0 3.0 0.00 0.89 0.74 71 1034.8
20260903200050 86 164 0.0 3.0 0.00 0.89 0.74 71 1034.9
20260903195549 86 356 0.0 3.0 0.00 0.91 0.74 74 1034.9
20260903195048 86 194 0.0 2.0 0.00 0.91 0.74 70 1034.9
20260903194549 86 70 0.0 6.0 0.00 0.91 0.74 73 1035.0
20260903194048 86 70 0.0 6.0 0.00 0.91 0.74 71 1035.1
20260903193546 87 352 0.0 3.0 0.00 0.91 0.74 72 1035.2
20260903193047 86 175 0.0 5.0 0.00 0.91 0.74 74 1035.3
20260903192545 86 272 0.0 5.0 0.00 0.91 0.74 73 1035.4
20260903192043 86 359 0.0 3.0 0.00 0.91 0.74 72 1035.6
20260903191542 85 60 0.0 5.0 0.00 0.91 0.74 74 1035.7
20260903191042 85 59 0.0 5.0 0.00 0.91 0.74 72 1035.7
20260903190546 85 34 0.0 4.0 0.00 0.91 0.74 72 1035.6
20260903190042 86 267 0.0 3.0 0.00 0.91 0.74 73 1035.6
20260903185540 85 269 0.0 6.0 0.00 0.91 0.74 71 1035.7
20260903185039 85 61 0.0 6.0 0.00 0.91 0.74 76 1035.8
20260903184540 84 23 0.0 8.0 0.00 0.91 0.74 72 1036.0
20260903184039 84 46 3.0 8.0 0.00 0.91 0.74 71 1036.0
20260903183538 84 248 1.0 7.0 0.00 0.91 0.74 73 1036.1
20260903183039 84 34 2.0 7.0 0.00 0.91 0.74 72 1036.2
20260903182537 84 51 0.0 4.0 0.00 0.91 0.74 72 1036.3
20260903182036 84 195 0.0 5.0 0.00 0.91 0.74 74 1036.3
20260903181535 84 233 0.0 8.0 0.00 0.91 0.74 73 1036.6
20260903181036 84 340 1.0 8.0 0.00 0.91 0.74 71 1036.6
20260903180537 84 341 1.0 8.0 0.00 0.91 0.74 73 1036.5
20260903180045 84 37 1.0 8.0 0.00 0.91 0.74 72 1036.6
20260903175535 84 175 0.0 4.0 0.00 0.91 0.74 76 1036.6
20260903175033 84 125 0.0 4.0 0.00 0.91 0.74 74 1036.5
20260903174535 83 63 1.0 5.0 0.00 0.91 0.74 74 1036.4
20260903174033 83 92 1.0 7.0 0.00 0.91 0.74 74 1036.6
20260903173534 84 1 1.0 9.0 0.00 0.91 0.74 72 1036.6
20260903173032 84 14 1.0 9.0 0.00 0.91 0.74 75 1036.6
20260903172531 83 129 0.0 6.0 0.00 0.91 0.74 76 1036.6
20260903172029 83 42 0.0 6.0 0.00 0.91 0.74 74 1036.6
20260903171535 83 144 0.0 7.0 0.00 0.91 0.74 72 1036.7
20260903171028 82 67 2.0 7.0 0.00 0.91 0.74 73 1036.8
20260903170529 82 90 1.0 7.0 0.00 0.91 0.74 73 1036.9
20260903170036 82 321 1.0 5.0 0.00 0.91 0.74 76 1036.9
20260903165529 82 3 1.0 8.0 0.00 0.94 0.74 76 1037.1
20260903165029 81 319 1.0 8.0 0.00 0.94 0.74 79 1037.1
20260903164524 81 214 0.0 10.0 0.00 0.94 0.74 77 1037.3
20260903164024 81 110 2.0 10.0 0.00 0.94 0.74 78 1037.4
20260903163525 81 12 2.0 10.0 0.00 0.94 0.74 76 1037.3
20260903163026 81 34 2.0 7.0 0.00 0.94 0.74 76 1037.3
20260903162524 81 101 0.0 6.0 0.00 0.94 0.74 80 1037.5
20260903162024 80 59 2.0 9.0 0.00 0.94 0.74 77 1037.6
20260903161522 80 57 0.0 9.0 0.00 0.94 0.74 80 1037.7
20260903161020 80 83 1.0 5.0 0.00 0.94 0.74 81 1037.7
20260903160524 80 354 1.0 5.0 0.00 0.94 0.74 79 1037.7
20260903160021 80 88 1.0 6.0 0.00 0.94 0.74 80 1037.8
20260903155521 79 288 0.0 7.0 0.00 0.98 0.74 81 1037.9
20260903155020 79 106 0.0 7.0 0.00 0.98 0.74 81 1038.0
20260903154517 79 36 2.0 7.0 0.00 0.98 0.74 81 1038.1
20260903154015 78 251 0.0 4.0 0.00 0.98 0.74 83 1038.2
20260903153514 78 72 1.0 4.0 0.00 0.98 0.74 84 1038.2
20260903153013 77 102 0.0 7.0 0.00 0.98 0.74 85 1038.3
20260903152513 76 82 2.0 7.0 0.00 0.98 0.74 84 1038.3
20260903152012 76 26 0.0 11.0 0.00 0.98 0.74 84 1038.5
20260903151513 76 58 2.0 11.0 0.00 0.98 0.74 85 1038.4
20260903151009 76 354 2.0 7.0 0.00 0.98 0.74 85 1038.4
20260903150508 75 60 1.0 6.0 0.00 0.98 0.74 86 1038.4
20260903150021 75 230 2.0 5.0 0.00 0.98 0.74 86 1038.5
20260903145505 75 143 1.0 5.0 0.00 0.98 0.74 87 1038.5
20260903145003 74 53 1.0 5.0 0.00 0.98 0.74 88 1038.5
20260903144502 73 352 0.0 4.0 0.00 0.98 0.74 89 1038.5
20260903144003 72 249 0.0 4.0 0.01 0.98 0.74 90 1038.4
20260903143600 72 356 0.0 4.0 0.01 0.98 0.74 90 1038.5
20260903143058 72 58 0.0 2.0 0.01 0.98 0.74 91 1038.4
20260903142558 71 359 0.0 3.0 0.01 0.98 0.74 91 1038.4
20260903142057 71 198 0.0 3.0 0.01 0.98 0.74 91 1038.2
20260903141559 71 205 0.0 1.0 0.01 0.98 0.74 92 1038.4
20260903141055 71 196 0.0 1.0 0.01 0.98 0.74 92 1038.9
20260903140557 71 196 0.0 4.0 0.01 0.98 0.74 92 1038.9
20260903140054 71 62 0.0 4.0 0.01 0.98 0.74 91 1039.1
20260903135551 71 18 0.0 3.0 0.01 0.98 0.74 91 1039.1
20260903135051 71 72 0.0 8.0 0.01 0.98 0.74 91 1038.9
20260903134601 71 62 2.0 8.0 0.01 0.98 0.74 91 1039.2
20260903134047 71 94 0.0 4.0 0.00 0.97 0.73 91 1039.3
20260903133549 71 47 0.0 4.0 0.00 0.97 0.73 91 1039.3
20260903133044 71 59 0.0 5.0 0.00 0.97 0.73 91 1039.1
20260903132543 71 59 2.0 5.0 0.00 0.97 0.73 91 1038.9
20260903132045 70 21 0.0 4.0 0.00 0.97 0.73 91 1038.7
20260903131543 70 25 0.0 4.0 0.00 0.97 0.73 91 1038.8
20260903131041 70 352 0.0 4.0 0.00 0.97 0.73 91 1038.7
20260903130541 70 79 1.0 5.0 0.00 0.97 0.73 92 1038.6
20260903130041 70 50 0.0 5.0 0.00 0.97 0.73 92 1038.5
20260903125540 70 50 1.0 5.0 0.00 0.97 0.73 92 1038.5
20260903125041 70 96 0.0 3.0 0.00 0.97 0.73 92 1038.7
20260903124550 70 18 0.0 4.0 0.00 0.97 0.73 93 1038.6
20260903124039 69 71 0.0 4.0 0.00 0.97 0.73 93 1038.4
20260903123544 69 81 0.0 8.0 0.00 0.97 0.73 93 1038.7
20260903123040 69 81 2.0 8.0 0.00 0.97 0.73 93 1038.9
20260903122540 69 139 0.0 4.0 0.00 0.97 0.73 94 1038.7
20260903122040 68 53 0.0 5.0 0.00 0.97 0.73 93 1038.5
20260903121540 68 68 1.0 5.0 0.00 0.97 0.73 93 1038.5
20260903121039 68 146 1.0 3.0 0.00 0.97 0.73 94 1038.4
20260903120539 68 75 0.0 2.0 0.00 0.97 0.73 94 1038.4
20260903120043 68 41 0.0 2.0 0.00 0.97 0.73 94 1038.4
20260903115538 68 60 0.0 3.0 0.00 0.97 0.73 94 1038.4
20260903115039 68 66 0.0 3.0 0.00 0.97 0.73 94 1038.3
20260903114541 68 279 0.0 1.0 0.00 0.97 0.73 94 1038.2
20260903114039 68 269 0.0 1.0 0.00 0.97 0.73 94 1038.0
20260903113540 67 236 0.0 2.0 0.00 0.97 0.73 94 1038.0
20260903113042 67 99 0.0 2.0 0.00 0.97 0.73 94 1038.1
20260903112538 67 84 0.0 1.0 0.00 0.97 0.73 94 1037.9
20260903112037 67 85 0.0 1.0 0.00 0.97 0.73 94 1038.0
20260903111538 67 85 0.0 1.0 0.00 0.97 0.73 94 1037.7
20260903111039 67 85 0.0 1.0 0.00 0.97 0.73 94 1037.7
20260903110537 67 85 0.0 1.0 0.01 0.97 0.73 94 1037.7
20260903110040 67 85 0.0 1.0 0.01 0.97 0.73 94 1037.7
20260903105540 67 64 0.0 1.0 0.01 0.97 0.73 94 1037.6
20260903105036 67 64 0.0 3.0 0.01 0.97 0.73 94 1037.5
20260903104537 67 59 0.0 3.0 0.01 0.97 0.73 93 1037.5
20260903104040 67 88 0.0 4.0 0.01 0.97 0.73 93 1037.4
20260903103536 67 65 1.0 4.0 0.01 0.97 0.73 93 1037.5
20260903103036 67 124 0.0 5.0 0.01 0.97 0.73 93 1037.3
20260903102535 67 139 0.0 5.0 0.01 0.97 0.73 93 1036.8
20260903102035 67 303 0.0 3.0 0.01 0.97 0.73 93 1037.5
20260903101537 68 41 0.0 3.0 0.01 0.97 0.73 93 1037.7
20260903101033 68 89 0.0 3.0 0.01 0.97 0.73 93 1038.0
20260903100533 68 82 1.0 3.0 0.01 0.96 0.72 93 1038.7
20260903100036 68 28 0.0 14.0 0.01 0.96 0.72 93 1039.0
20260903095533 68 50 1.0 14.0 0.01 0.96 0.72 93 1039.4
20260903095033 68 34 2.0 7.0 0.02 0.96 0.72 93 1039.1
20260903094537 68 47 0.0 7.0 0.02 0.96 0.72 94 1039.5
20260903094033 68 352 3.0 8.0 0.02 0.96 0.72 94 1039.4
20260903093533 68 14 1.0 5.0 0.02 0.96 0.72 94 1039.0
20260903093033 68 339 0.0 5.0 0.02 0.96 0.72 94 1038.7
20260903092536 68 32 1.0 6.0 0.02 0.96 0.72 94 1038.3
20260903092032 68 35 0.0 6.0 0.03 0.96 0.72 94 1038.2
20260903091531 68 53 1.0 7.0 0.05 0.96 0.72 94 1038.3
20260903091034 68 41 1.0 7.0 0.06 0.96 0.72 94 1038.0
20260903090533 68 62 1.0 7.0 0.06 0.95 0.71 94 1038.1
20260903090030 68 75 1.0 6.0 0.07 0.95 0.71 94 1038.1
20260903085530 68 352 2.0 6.0 0.08 0.95 0.71 94 1037.8
20260903085030 68 35 1.0 5.0 0.08 0.94 0.70 94 1038.1
20260903084541 68 97 0.0 6.0 0.09 0.94 0.70 94 1037.9
20260903084030 68 39 1.0 6.0 0.09 0.94 0.70 94 1038.0
20260903083530 68 122 0.0 4.0 0.10 0.94 0.70 94 1037.6
20260903083030 68 350 1.0 7.0 0.10 0.94 0.70 94 1037.5
20260903082528 68 23 1.0 7.0 0.10 0.94 0.70 94 1037.6
20260903082028 68 92 1.0 3.0 0.09 0.93 0.69 95 1038.2
20260903081527 68 345 0.0 1.0 0.07 0.91 0.67 95 1038.5
20260903081027 68 345 0.0 1.0 0.06 0.90 0.66 95 1039.1
20260903080526 68 345 0.0 1.0 0.05 0.89 0.65 95 1039.1
20260903080026 68 345 0.0 1.0 0.04 0.88 0.64 95 1039.1
20260903075526 68 345 0.0 1.0 0.03 0.87 0.63 95 1038.8
20260903075025 68 345 0.0 1.0 0.02 0.86 0.62 95 1038.9
20260903074525 68 345 0.0 1.0 0.01 0.85 0.61 95 1039.0
20260903074025 67 345 0.0 1.0 0.01 0.85 0.61 94 1039.2
20260903073526 67 345 0.0 0.0 0.01 0.84 0.60 94 1039.1
20260903073025 67 345 0.0 0.0 0.02 0.84 0.60 94 1039.0
20260903072524 67 345 0.0 0.0 0.03 0.84 0.60 94 1039.1
20260903072024 67 345 0.0 0.0 0.04 0.84 0.60 94 1039.3
20260903071525 67 345 0.0 0.0 0.07 0.84 0.60 94 1039.2
20260903071023 67 345 0.0 0.0 0.27 0.84 0.60 94 1039.3
20260903070523 67 345 0.0 0.0 0.28 0.84 0.60 94 1039.0
20260903070023 67 345 0.0 1.0 0.28 0.84 0.60 94 1038.8
20260903065523 67 345 0.0 3.0 0.28 0.84 0.60 94 1038.7
20260903065023 67 345 0.0 3.0 0.28 0.84 0.60 94 1038.5
20260903064522 67 205 0.0 2.0 0.28 0.84 0.60 94 1038.4
20260903064022 67 205 0.0 2.0 0.28 0.84 0.60 94 1038.3
20260903063526 67 210 0.0 2.0 0.27 0.82 0.57 94 1038.3
20260903063027 67 218 0.0 2.0 0.27 0.81 0.56 94 1038.9
20260903062521 67 226 0.0 2.0 0.28 0.81 0.56 94 1039.9
20260903062021 67 227 0.0 5.0 0.38 0.80 0.56 93 1040.1
20260903061532 67 39 0.0 5.0 0.37 0.75 0.51 94 1040.4
20260903061024 67 96 1.0 5.0 0.24 0.56 0.33 94 1041.6
20260903060518 67 8 2.0 5.0 0.24 0.56 0.32 94 1040.2
20260903060022 67 186 0.0 2.0 0.25 0.56 0.32 93 1039.1
20260903055516 67 176 0.0 2.0 0.25 0.56 0.32 93 1038.9
20260903055020 67 181 0.0 2.0 0.25 0.56 0.32 93 1039.0
20260903054516 67 231 0.0 4.0 0.26 0.56 0.32 93 1039.2
20260903054015 68 232 0.0 4.0 0.26 0.56 0.32 93 1039.4
20260903053517 68 150 0.0 3.0 0.25 0.55 0.31 93 1039.4
20260903053027 68 240 0.0 2.0 0.25 0.54 0.30 93 1039.4